RYR614 EBCI-EGCC

Flight info

Callsign RYR614
Flight time N/A
Altitude 38000
Route CIV UY50 LUMEN L610 LAM UN57 WELIN T420 ELVOS
Aircraft B38M/M-SDE1FGHILORVWXY/HB1

Departure

Time 2026-05-04 17:23
Airport Brussels South Charleroi Airport (EBCI)

Arrival

Time N/A
Airport Manchester Airport (EGCC)
Time Latitude Longitude Altitude Speed Heading
2026-05-04 17:01 50.46885 4.47172 612 ft 0 kts 335°
2026-05-04 17:16 50.46835 4.47159 627 ft 0 kts 23°
2026-05-04 17:20 50.46850 4.47233 614 ft 9 kts 72°
2026-05-04 17:20 50.46886 4.47365 619 ft 16 kts 66°
2026-05-04 17:21 50.46875 4.47637 613 ft 15 kts 146°
2026-05-04 17:21 50.46725 4.47717 610 ft 13 kts 192°
2026-05-04 17:22 50.46667 4.47634 613 ft 6 kts 245°
2026-05-04 17:22 50.46665 4.47628 612 ft 0 kts 246°
2026-05-04 17:23 50.46152 4.45858 626 ft 162 kts 245°
2026-05-04 17:23 50.45643 4.44078 1111 ft 188 kts 246°
2026-05-04 17:23 50.44603 4.40334 2782 ft 194 kts 246°
2026-05-04 17:24 50.44023 4.38309 3231 ft 216 kts 246°
2026-05-04 17:24 50.42023 4.31407 3480 ft 261 kts 245°
2026-05-04 17:25 50.41269 4.28785 3589 ft 266 kts 248°
2026-05-04 17:25 50.41507 4.23371 3812 ft 264 kts 300°
2026-05-04 17:26 50.43412 4.18407 3988 ft 266 kts 302°
2026-05-04 17:26 50.46333 4.11026 3988 ft 266 kts 303°
2026-05-04 17:27 50.48284 4.06141 3988 ft 266 kts 303°
2026-05-04 17:27 50.50251 4.01217 3986 ft 266 kts 303°
2026-05-04 17:28 50.52216 3.96289 3987 ft 266 kts 303°
2026-05-04 17:29 50.55105 3.89030 3986 ft 266 kts 303°
2026-05-04 17:29 50.58688 3.82694 3981 ft 262 kts 340°
2026-05-04 17:30 50.63653 3.79714 6378 ft 268 kts 340°
2026-05-04 17:31 50.67166 3.77665 8432 ft 276 kts 340°
2026-05-04 17:31 50.72291 3.74702 10804 ft 302 kts 340°
2026-05-04 17:32 50.76490 3.72273 12293 ft 323 kts 340°
2026-05-04 17:33 50.82892 3.68564 14933 ft 336 kts 340°
2026-05-04 17:33 50.84788 3.67465 15661 ft 339 kts 340°
2026-05-04 17:34 50.90536 3.64123 17749 ft 349 kts 340°
2026-05-04 17:34 50.92804 3.62681 18533 ft 352 kts 338°
2026-05-04 17:35 50.99724 3.58231 20409 ft 367 kts 338°
2026-05-04 17:35 51.04204 3.55357 21555 ft 376 kts 337°
2026-05-04 17:35 51.06454 3.53910 22088 ft 381 kts 337°
2026-05-04 17:36 51.08793 3.52406 22681 ft 384 kts 336°
2026-05-04 17:36 51.11282 3.50804 23288 ft 389 kts 337°
2026-05-04 17:36 51.13793 3.49187 23818 ft 393 kts 337°
2026-05-04 17:36 51.16347 3.47538 24303 ft 397 kts 336°
2026-05-04 17:37 51.18925 3.45872 24774 ft 401 kts 337°
2026-05-04 17:37 51.21466 3.44227 25326 ft 402 kts 337°
2026-05-04 17:37 51.23960 3.42225 25802 ft 404 kts 323°
2026-05-04 17:37 51.25491 3.40070 26128 ft 403 kts 309°
2026-05-04 17:38 51.27058 3.36129 26559 ft 404 kts 290°
2026-05-04 17:38 51.27835 3.32164 27010 ft 403 kts 282°
2026-05-04 17:38 51.28490 3.27866 27535 ft 405 kts 280°
2026-05-04 17:38 51.29111 3.23459 28001 ft 408 kts 279°
2026-05-04 17:39 51.30290 3.14556 28900 ft 413 kts 278°
2026-05-04 17:39 51.30802 3.10547 29267 ft 416 kts 278°
2026-05-04 17:39 51.31379 3.06003 29678 ft 419 kts 278°
2026-05-04 17:40 51.31958 3.01415 30082 ft 422 kts 278°
2026-05-04 17:40 51.32539 2.96803 30437 ft 424 kts 278°
2026-05-04 17:40 51.32924 2.93726 30700 ft 425 kts 278°
2026-05-04 17:40 51.33683 2.87652 31204 ft 427 kts 277°
2026-05-04 17:41 51.34069 2.84557 31478 ft 428 kts 277°
2026-05-04 17:41 51.34631 2.80028 31877 ft 429 kts 277°
2026-05-04 17:41 51.35215 2.75326 32234 ft 431 kts 277°
2026-05-04 17:41 51.35799 2.70609 32585 ft 433 kts 277°
2026-05-04 17:42 51.36382 2.65883 32936 ft 435 kts 277°
2026-05-04 17:42 51.36968 2.61121 33278 ft 437 kts 277°
2026-05-04 17:42 51.37545 2.56412 33620 ft 438 kts 277°
2026-05-04 17:42 51.38130 2.51626 34005 ft 439 kts 277°
2026-05-04 17:43 51.38712 2.46843 34398 ft 437 kts 277°
2026-05-04 17:43 51.39291 2.42074 34731 ft 438 kts 277°
2026-05-04 17:43 51.39862 2.37353 35077 ft 438 kts 278°
2026-05-04 17:43 51.40440 2.32545 35369 ft 439 kts 278°
2026-05-04 17:44 51.41018 2.27731 35684 ft 440 kts 278°
2026-05-04 17:44 51.41593 2.22923 36006 ft 440 kts 278°
2026-05-04 17:44 51.42165 2.18119 36317 ft 440 kts 278°
2026-05-04 17:44 51.42740 2.13281 36613 ft 441 kts 278°
2026-05-04 17:45 51.43311 2.08455 36905 ft 441 kts 278°
2026-05-04 17:45 51.43877 2.03653 37197 ft 441 kts 278°
2026-05-04 17:45 51.44463 1.98814 37491 ft 442 kts 278°
2026-05-04 17:45 51.45063 1.93979 37762 ft 442 kts 278°
2026-05-04 17:46 51.45657 1.89146 37997 ft 443 kts 278°
2026-05-04 17:46 51.46227 1.84277 38004 ft 444 kts 278°
2026-05-04 17:46 51.47354 1.74581 38003 ft 442 kts 278°
2026-05-04 17:47 51.48467 1.64958 38001 ft 442 kts 278°
2026-05-04 17:47 51.49573 1.55265 38002 ft 442 kts 278°
2026-05-04 17:48 51.50673 1.45547 38007 ft 442 kts 278°